Date String (YYYY-MM-DD hh:mm:ss) UTC,Instrument flags,absolute air pressure of the measurement (hPa),sample flow rate (lpm),inlet stack bypass flow (lpm),air temperature of the measurement (°C),ambient temperature measured by the external sensor (°C),aerosol sample conditioner tube jacket temperature (°C),OPC LED temperature (°C),internal box temperature (°C),relative humidity of the measurement (%),span deviation,mass concentration of particles derived from Lorenz-Mie calculation of OPC scattering (μg/m³),mass concentration of particles derived from Lorenz-Mie calculation of OPC scattering (μg/m³),mass concentration of particles derived from Lorenz-Mie calculation of OPC scattering (μg/m³)
DateTimeUTC,F1_M11,P_M11,Q1_M11,Q2_M11,T1_M11,T2_M11,T3_M11,T4_M11,T5_M11,U1_M11,ZSPAN_M11,X0_M11,X2_M11,X1_M11
2024-06-11 20:00:00,SystemResetWarning,0830.2,5.00,000.00,029.4,028.9,000.0,037.4,031.2,032.9,0000.0,0017.16,0007.01,0005.81
2024-06-11 20:01:00,SystemResetWarning,0830.2,4.98,000.00,029.2,027.4,000.0,037.5,030.4,033.2,0000.0,0017.08,0007.01,0005.79
2024-06-11 20:02:00,SystemResetWarning,0830.2,5.02,000.00,029.0,026.6,000.0,037.5,030.1,034.4,0000.0,0016.60,0007.01,0005.76
2024-06-11 20:03:00,SystemResetWarning,0830.2,5.01,000.00,028.9,026.9,000.0,037.5,030.1,034.8,0000.0,0017.17,0006.92,0005.74
2024-06-11 20:04:00,SystemResetWarning,0830.2,5.00,000.00,028.9,027.2,000.0,037.4,030.3,034.5,0000.0,0017.71,0006.90,0005.73
2024-06-11 20:05:00,SystemResetWarning,0830.2,5.00,000.00,029.0,027.6,000.0,037.4,030.6,033.8,0000.0,0018.48,0006.94,0005.71
2024-06-11 20:06:00,SystemResetWarning,0830.2,5.00,000.00,029.0,027.9,000.0,037.4,030.7,034.0,0000.0,0020.03,0006.98,0005.70
2024-06-11 20:07:00,SystemResetWarning,0830.2,5.00,000.00,029.1,028.1,000.0,037.4,030.9,033.1,0000.0,0022.16,0007.04,0005.71
2024-06-11 20:08:00,SystemResetWarning,0830.2,4.99,000.00,029.2,028.4,000.0,037.4,031.0,033.0,0000.0,0022.78,0007.10,0005.72
2024-06-11 20:09:00,SystemResetWarning,0830.1,5.00,000.00,029.2,028.6,000.0,037.4,031.1,033.2,0000.0,0023.97,0007.13,0005.72
2024-06-11 20:10:00,SystemResetWarning,0830.1,4.99,000.00,029.3,028.8,000.0,037.4,031.2,033.2,0000.0,0024.52,0007.17,0005.72
2024-06-11 20:11:00,SystemResetWarning,0830.1,5.00,000.00,029.4,028.9,000.0,037.5,031.2,033.3,0000.0,0024.83,0007.17,0005.72
2024-06-11 20:12:00,SystemResetWarning,0830.0,4.99,000.00,029.3,027.6,000.0,037.5,030.5,033.4,0000.0,0025.36,0007.16,0005.71
2024-06-11 20:13:00,SystemResetWarning,0830.0,5.00,000.00,028.9,025.7,000.0,037.6,029.6,033.7,0000.0,0025.33,0007.11,0005.71
2024-06-11 20:14:00,SystemResetWarning,0829.9,5.01,000.00,028.7,025.6,000.0,037.5,029.5,034.8,0000.0,0025.54,0007.12,0005.73
2024-06-11 20:15:00,SystemResetWarning,0830.0,5.01,000.00,028.6,026.0,000.0,037.4,029.7,034.7,0000.0,0025.73,0007.16,0005.72
2024-06-11 20:16:00,SystemResetWarning,0830.1,5.00,000.00,028.6,026.4,000.0,037.3,030.0,034.1,0000.0,0028.07,0007.21,0005.71
2024-06-11 20:17:00,SystemResetWarning,0830.0,5.01,000.00,028.7,026.9,000.0,037.2,030.2,033.9,0000.0,0028.16,0007.29,0005.73
2024-06-11 20:18:00,SystemResetWarning,0830.0,5.00,000.00,028.7,027.3,000.0,037.2,030.4,034.7,0000.0,0029.10,0007.32,0005.73
2024-06-11 20:19:00,SystemResetWarning,0830.0,5.00,000.00,028.8,027.7,000.0,037.2,030.5,034.1,0000.0,0027.79,0007.25,0005.71
2024-06-11 20:20:00,SystemResetWarning,0830.1,5.00,000.00,028.9,028.0,000.0,037.2,030.7,033.7,0000.0,0027.73,0007.21,0005.70
2024-06-11 20:21:00,SystemResetWarning,0830.0,5.00,000.00,029.0,028.2,000.0,037.2,030.8,033.5,0000.0,0028.13,0007.19,0005.70
2024-06-11 20:22:00,SystemResetWarning,0830.0,5.00,000.00,029.0,028.5,000.0,037.2,030.9,033.2,0000.0,0027.51,0007.18,0005.70
2024-06-11 20:23:00,SystemResetWarning,0830.0,5.00,000.00,029.1,028.6,000.0,037.3,031.0,034.2,0000.0,0027.30,0007.24,0005.71
2024-06-11 20:24:00,SystemResetWarning,0830.0,5.00,000.00,029.2,028.8,000.0,037.3,031.1,034.3,0000.0,0027.30,0007.29,0005.71
2024-06-11 20:25:00,SystemResetWarning,0829.9,5.01,000.00,029.3,028.9,000.0,037.3,031.2,033.1,0000.0,0028.10,0007.32,0005.69
2024-06-11 20:26:00,SystemResetWarning,0829.9,5.00,000.00,029.4,029.0,000.0,037.4,031.2,032.6,0000.0,0029.34,0007.34,0005.69
2024-06-11 20:27:00,SystemResetWarning,0829.8,4.97,000.00,029.3,027.6,000.0,037.5,030.6,033.3,0000.0,0028.73,0007.38,0005.71
2024-06-11 20:28:00,SystemResetWarning,0829.8,5.03,000.00,029.0,026.5,000.0,037.5,030.0,034.2,0000.0,0027.84,0007.28,0005.70
2024-06-11 20:29:00,SystemResetWarning,0829.8,4.99,000.00,028.9,026.7,000.0,037.5,030.1,034.6,0000.0,0026.02,0007.26,0005.70
2024-06-11 20:30:00,SystemResetWarning,0829.8,5.00,000.00,028.9,027.1,000.0,037.4,030.3,034.4,0000.0,0026.02,0007.27,0005.71
2024-06-11 20:31:00,SystemResetWarning,0829.8,5.00,000.00,029.0,027.5,000.0,037.3,030.5,034.6,0000.0,0027.04,0007.33,0005.72
2024-06-11 20:32:00,SystemResetWarning,0829.8,5.01,000.00,029.0,027.8,000.0,037.3,030.7,034.5,0000.0,0026.82,0007.37,0005.72
2024-06-11 20:33:00,SystemResetWarning,0829.8,5.01,000.00,029.1,028.1,000.0,037.3,030.9,034.8,0000.0,0027.15,0007.37,0005.72
2024-06-11 20:34:00,SystemResetWarning,0829.9,5.00,000.00,029.2,028.4,000.0,037.3,031.0,034.6,0000.0,0027.62,0007.33,0005.72
2024-06-11 20:35:00,SystemResetWarning,0829.8,4.99,000.00,029.2,028.6,000.0,037.4,031.1,034.2,0000.0,0027.58,0007.29,0005.73
2024-06-11 20:36:00,SystemResetWarning,0829.8,5.00,000.00,029.3,028.8,000.0,037.4,031.2,034.6,0000.0,0027.73,0007.32,0005.73
2024-06-11 20:37:00,SystemResetWarning,0829.8,5.00,000.00,029.4,028.9,000.0,037.5,031.3,033.5,0000.0,0026.66,0007.31,0005.73
2024-06-11 20:38:00,SystemResetWarning,0829.8,5.00,000.00,029.5,028.8,000.0,037.5,031.2,033.6,0000.0,0024.98,0007.33,0005.74
2024-06-11 20:39:00,SystemResetWarning,0829.7,4.99,000.00,029.2,027.0,000.0,037.6,030.2,033.9,0000.0,0024.81,0007.36,0005.74
2024-06-11 20:40:00,SystemResetWarning,0829.7,5.01,000.00,028.9,025.6,000.0,037.6,029.6,034.6,0000.0,0024.98,0007.36,0005.74
2024-06-11 20:41:00,SystemResetWarning,0829.7,5.01,000.00,028.7,025.8,000.0,037.5,029.6,034.9,0000.0,0025.94,0007.39,0005.74
2024-06-11 20:42:00,SystemResetWarning,0829.7,5.00,000.00,028.6,026.2,000.0,037.4,029.8,035.3,0000.0,0024.61,0007.37,0005.74
2024-06-11 20:43:00,SystemResetWarning,0829.7,5.00,000.00,028.7,026.7,000.0,037.3,030.1,035.5,0000.0,0025.04,0007.34,0005.73
2024-06-11 20:44:00,SystemResetWarning,0829.7,5.00,000.00,028.7,027.2,000.0,037.3,030.3,034.6,0000.0,0026.27,0007.36,0005.73
2024-06-11 20:45:00,SystemResetWarning,0829.7,5.00,000.00,028.8,027.6,000.0,037.2,030.5,034.2,0000.0,0026.86,0007.38,0005.75
2024-06-11 20:46:00,SystemResetWarning,0829.7,5.00,000.00,028.9,027.9,000.0,037.2,030.7,034.8,0000.0,0026.94,0007.45,0005.77
2024-06-11 20:47:00,SystemResetWarning,0829.7,4.99,000.00,029.0,028.2,000.0,037.2,030.8,034.8,0000.0,0026.29,0007.38,0005.77
2024-06-11 20:48:00,SystemResetWarning,0829.7,4.99,000.00,029.1,028.4,000.0,037.3,030.9,035.0,0000.0,0025.45,0007.40,0005.78
2024-06-11 20:49:00,SystemResetWarning,0829.7,5.00,000.00,029.2,028.6,000.0,037.3,031.1,033.9,0000.0,0026.19,0007.34,0005.77
2024-06-11 20:50:00,SystemResetWarning,0829.7,5.00,000.00,029.2,028.8,000.0,037.3,031.1,034.3,0000.0,0026.77,0007.35,0005.77
2024-06-11 20:51:00,SystemResetWarning,0829.7,4.99,000.00,029.3,028.9,000.0,037.4,031.3,034.2,0000.0,0026.68,0007.37,0005.78
2024-06-11 20:52:00,SystemResetWarning,0829.7,5.00,000.00,029.4,028.7,000.0,037.4,031.1,033.7,0000.0,0024.80,0007.32,0005.77
2024-06-11 20:53:00,SystemResetWarning,0829.6,5.00,000.00,029.1,026.7,000.0,037.5,030.1,033.3,0000.0,0026.25,0007.33,0005.77
2024-06-11 20:54:00,SystemResetWarning,0829.5,5.01,000.00,028.8,025.5,000.0,037.5,029.4,034.3,0000.0,0025.65,0007.37,0005.78
2024-06-11 20:55:00,SystemResetWarning,0829.5,5.00,000.00,028.6,025.8,000.0,037.4,029.5,034.4,0000.0,0025.80,0007.38,0005.79
2024-06-11 20:56:00,SystemResetWarning,0829.5,5.00,000.00,028.6,026.3,000.0,037.3,029.8,034.8,0000.0,0025.02,0007.39,0005.79
2024-06-11 20:57:00,SystemResetWarning,0829.6,5.00,000.00,028.6,026.7,000.0,037.2,030.1,034.4,0000.0,0025.67,0007.41,0005.78
2024-06-11 20:58:00,SystemResetWarning,0829.5,5.00,000.00,028.7,027.2,000.0,037.2,030.3,033.7,0000.0,0026.48,0007.50,0005.79
2024-06-11 20:59:00,SystemResetWarning,0829.5,4.99,000.00,028.7,027.6,000.0,037.2,030.5,034.3,0000.0,0027.28,0007.56,0005.80
